TimeEDT,TemperatureF,Dew PointF,Humidity,Sea Level PressureIn,VisibilityMPH,Wind Direction,Wind SpeedMPH,Gust SpeedMPH,PrecipitationIn,Events,Conditions,WindDirDegrees,DateUTC
12:54 AM,61.0,55.9,83,30.21,10.0,NE,4.6,-,N/A,,Mostly Cloudy,40,2013-04-16 04:54:00
1:54 AM,60.1,55.0,83,30.20,10.0,ENE,5.8,-,N/A,,Mostly Cloudy,60,2013-04-16 05:54:00
2:54 AM,59.0,55.0,87,30.20,10.0,East,4.6,-,N/A,,Mostly Cloudy,80,2013-04-16 06:54:00
3:54 AM,60.1,55.0,83,30.20,10.0,ENE,3.5,-,N/A,,Mostly Cloudy,60,2013-04-16 07:54:00
4:54 AM,59.0,55.0,87,30.20,10.0,Calm,Calm,-,N/A,,Mostly Cloudy,0,2013-04-16 08:54:00
5:27 AM,57.2,55.4,94,30.22,10.0,Calm,Calm,-,N/A,,Mostly Cloudy,0,2013-04-16 09:27:00
5:34 AM,57.2,55.4,94,30.23,10.0,Calm,Calm,-,N/A,,Overcast,0,2013-04-16 09:34:00
5:54 AM,57.9,55.0,90,30.22,10.0,Calm,Calm,-,N/A,,Overcast,0,2013-04-16 09:54:00
6:21 AM,57.2,55.4,94,30.23,10.0,East,4.6,-,N/A,,Overcast,100,2013-04-16 10:21:00
6:54 AM,57.0,55.9,96,30.22,7.0,ESE,3.5,-,N/A,,Scattered Clouds,120,2013-04-16 10:54:00
7:17 AM,57.2,55.4,94,30.25,7.0,Calm,Calm,-,N/A,,Mostly Cloudy,0,2013-04-16 11:17:00
7:54 AM,59.0,57.0,93,30.25,7.0,SE,4.6,-,N/A,,Mostly Cloudy,140,2013-04-16 11:54:00
8:40 AM,60.8,57.2,88,30.27,7.0,SSE,4.6,-,N/A,,Mostly Cloudy,160,2013-04-16 12:40:00
8:54 AM,62.1,57.9,86,30.26,9.0,SE,5.8,-,N/A,,Mostly Cloudy,130,2013-04-16 12:54:00
9:54 AM,66.0,57.9,75,30.26,10.0,South,4.6,-,N/A,,Mostly Cloudy,170,2013-04-16 13:54:00
10:54 AM,68.0,59.0,73,30.27,10.0,WSW,4.6,-,N/A,,Mostly Cloudy,240,2013-04-16 14:54:00
11:54 AM,68.0,59.0,73,30.28,10.0,West,5.8,-,N/A,,Overcast,280,2013-04-16 15:54:00
12:39 PM,69.8,59.0,68,30.29,10.0,WSW,3.5,-,N/A,,Overcast,250,2013-04-16 16:39:00
12:54 PM,71.1,57.9,63,30.27,10.0,West,8.1,-,N/A,,Overcast,270,2013-04-16 16:54:00
1:33 PM,73.4,59.0,61,30.27,10.0,West,5.8,-,N/A,,Mostly Cloudy,260,2013-04-16 17:33:00
1:54 PM,73.0,59.0,61,30.24,10.0,Variable,3.5,-,N/A,,Scattered Clouds,0,2013-04-16 17:54:00
2:54 PM,75.0,57.0,53,30.22,10.0,Variable,4.6,-,N/A,,Mostly Cloudy,0,2013-04-16 18:54:00
3:54 PM,75.0,55.0,50,30.19,10.0,Variable,5.8,-,N/A,,Scattered Clouds,0,2013-04-16 19:54:00
4:54 PM,75.0,55.9,51,30.17,10.0,South,5.8,-,N/A,,Mostly Cloudy,180,2013-04-16 20:54:00
5:54 PM,75.0,57.0,53,30.17,10.0,SSE,10.4,-,N/A,,Scattered Clouds,160,2013-04-16 21:54:00
6:54 PM,73.9,57.0,55,30.18,10.0,South,10.4,-,N/A,,Partly Cloudy,180,2013-04-16 22:54:00
7:54 PM,71.1,55.9,59,30.17,10.0,South,8.1,-,N/A,,Clear,180,2013-04-16 23:54:00
8:54 PM,68.0,55.9,65,30.19,10.0,South,5.8,-,N/A,,Clear,180,2013-04-17 00:54:00
9:54 PM,66.9,55.9,68,30.21,10.0,South,3.5,-,N/A,,Partly Cloudy,170,2013-04-17 01:54:00
10:54 PM,64.0,57.0,78,30.22,10.0,SSW,4.6,-,N/A,,Mostly Cloudy,200,2013-04-17 02:54:00
11:54 PM,64.0,55.9,75,30.20,10.0,South,6.9,-,N/A,,Partly Cloudy,180,2013-04-17 03:54:00